| time (UTC) | temp C | wind direction | speed KPH | gust KPH | rain 1hr cm | rain 24hr cm | rain mn cm | humidity % | barometer mb |
| 20260505041558 | 15 | 173 | 0.0 | 4.8 | 0.00 | 0.00 | 0.00 | 66 | 1010.9 |
| 20260505040104 | 15 | 165 | 0.0 | 3.2 | 0.00 | 0.00 | 0.00 | 65 | 1010.9 |
| 20260505034556 | 16 | 186 | 0.0 | 4.8 | 0.00 | 0.00 | 0.00 | 63 | 1010.7 |
| 20260505033057 | 16 | 180 | 0.0 | 3.2 | 0.00 | 0.00 | 0.00 | 63 | 1010.7 |
| 20260505031600 | 16 | 163 | 0.0 | 4.8 | 0.00 | 0.00 | 0.00 | 61 | 1010.8 |
| 20260505030100 | 16 | 178 | 0.0 | 3.2 | 0.00 | 0.00 | 0.00 | 60 | 1010.7 |
| 20260505024555 | 16 | 184 | 0.0 | 6.4 | 0.00 | 0.00 | 0.00 | 60 | 1010.7 |
| 20260505023055 | 16 | 167 | 0.0 | 9.7 | 0.00 | 0.00 | 0.00 | 59 | 1010.7 |
| 20260505021552 | 16 | 171 | 1.6 | 8.0 | 0.00 | 0.00 | 0.00 | 59 | 1010.6 |
| 20260505020053 | 16 | 161 | 0.0 | 4.8 | 0.00 | 0.00 | 0.00 | 59 | 1010.6 |
| 20260505014604 | 16 | 172 | 0.0 | 6.4 | 0.00 | 0.00 | 0.00 | 57 | 1010.6 |
| 20260505013051 | 17 | 144 | 0.0 | 0.0 | 0.00 | 0.00 | 0.00 | 56 | 1010.5 |
| 20260505011553 | 17 | 151 | 0.0 | 3.2 | 0.00 | 0.00 | 0.00 | 54 | 1010.3 |
| 20260505010050 | 18 | 150 | 0.0 | 1.6 | 0.00 | 0.00 | 0.00 | 52 | 1010.2 |
| 20260505004555 | 18 | 159 | 0.0 | 4.8 | 0.00 | 0.00 | 0.00 | 51 | 1010.0 |
| 20260505003053 | 18 | 157 | 0.0 | 3.2 | 0.00 | 0.00 | 0.00 | 50 | 1010.0 |
| 20260505001549 | 18 | 135 | 0.0 | 4.8 | 0.00 | 0.00 | 0.00 | 50 | 1009.9 |
| 20260505000055 | 19 | 175 | 0.0 | 4.8 | 0.00 | 0.00 | 0.00 | 48 | 1010.0 |
| 20260504234549 | 20 | 132 | 0.0 | 8.0 | 0.00 | 0.00 | 0.00 | 47 | 1009.9 |
| 20260504233048 | 20 | 153 | 1.6 | 8.0 | 0.00 | 0.00 | 0.00 | 47 | 1009.7 |
| 20260504231547 | 21 | 217 | 0.0 | 9.7 | 0.00 | 0.00 | 0.00 | 45 | 1009.8 |
| 20260504230050 | 22 | 158 | 1.6 | 14.5 | 0.00 | 0.00 | 0.00 | 42 | 1009.8 |
| 20260504224548 | 22 | 169 | 0.0 | 9.7 | 0.00 | 0.00 | 0.00 | 43 | 1009.6 |
| 20260504223046 | 22 | 181 | 3.2 | 12.9 | 0.00 | 0.00 | 0.00 | 40 | 1009.7 |
| 20260504221545 | 22 | 146 | 1.6 | 17.7 | 0.00 | 0.00 | 0.00 | 42 | 1009.6 |
| 20260504220046 | 23 | 158 | 0.0 | 24.1 | 0.00 | 0.00 | 0.00 | 39 | 1009.4 |
| 20260504214552 | 23 | 234 | 3.2 | 17.7 | 0.00 | 0.00 | 0.00 | 40 | 1009.6 |
| 20260504213042 | 23 | 169 | 3.2 | 16.1 | 0.00 | 0.00 | 0.00 | 39 | 1009.5 |
| 20260504211541 | 24 | 180 | 3.2 | 12.9 | 0.00 | 0.00 | 0.00 | 36 | 1009.7 |
| 20260504210054 | 25 | 252 | 4.8 | 14.5 | 0.00 | 0.00 | 0.00 | 37 | 1009.8 |
| 20260504204553 | 25 | 130 | 3.2 | 11.3 | 0.00 | 0.00 | 0.00 | 40 | 1009.9 |
| 20260504203041 | 25 | 232 | 4.8 | 24.1 | 0.00 | 0.00 | 0.00 | 36 | 1009.9 |
| 20260504201536 | 25 | 86 | 0.0 | 11.3 | 0.00 | 0.00 | 0.00 | 42 | 1010.1 |
| 20260504200033 | 25 | 111 | 1.6 | 11.3 | 0.00 | 0.00 | 0.00 | 36 | 1010.3 |
| 20260504194532 | 25 | 192 | 4.8 | 12.9 | 0.00 | 0.00 | 0.00 | 35 | 1010.4 |
| 20260504193029 | 25 | 108 | 8.0 | 19.3 | 0.00 | 0.00 | 0.00 | 36 | 1010.7 |
| 20260504191528 | 25 | 245 | 3.2 | 16.1 | 0.00 | 0.00 | 0.00 | 35 | 1011.0 |
| 20260504190025 | 25 | 144 | 1.6 | 14.5 | 0.00 | 0.00 | 0.00 | 39 | 1011.1 |
| 20260504184523 | 24 | 188 | 1.6 | 14.5 | 0.00 | 0.00 | 0.00 | 35 | 1011.4 |
| 20260504183020 | 25 | 248 | 0.0 | 19.3 | 0.00 | 0.00 | 0.00 | 37 | 1011.6 |
| 20260504181518 | 25 | 163 | 3.2 | 16.1 | 0.00 | 0.00 | 0.00 | 39 | 1011.8 |
| 20260504180016 | 23 | 199 | 1.6 | 12.9 | 0.00 | 0.00 | 0.00 | 41 | 1012.0 |
| 20260504174514 | 23 | 286 | 1.6 | 17.7 | 0.00 | 0.00 | 0.00 | 39 | 1012.0 |
| 20260504173010 | 24 | 169 | 4.8 | 16.1 | 0.00 | 0.00 | 0.00 | 41 | 1012.4 |
| 20260504171508 | 23 | 64 | 4.8 | 14.5 | 0.00 | 0.00 | 0.00 | 43 | 1012.6 |
| 20260504160103 | 22 | 243 | 3.2 | 14.5 | 0.00 | 0.00 | 0.00 | 36 | 1013.5 |
| 20260504081535 | 8 | 153 | 0.0 | 1.6 | 0.00 | 0.00 | 0.00 | 83 | 1015.6 |
| 20260504050009 | 5 | 264 | 0.0 | 0.0 | 0.00 | 0.00 | 0.00 | 85 | 1015.8 |
| 20260504044513 | 4 | 264 | 0.0 | 0.0 | 0.00 | 0.00 | 0.00 | 84 | 1015.7 |
| 20260504043011 | 4 | 264 | 0.0 | 0.0 | 0.00 | 0.00 | 0.00 | 83 | 1015.7 |